Flag for Brazil Weather past 2 weeks in Niterói, Rio de Janeiro, Brazil

Now
73 °F

Mostly cloudy.


Feels Like: 74 °F
Forecast: 66 / 75 °F
Wind: 9 mph from Southwest

Location: Rio De Janeiro Airport

Current Time: Aug 27, 2014 at 12:29:09 PM

Latest Report: Aug 27, 2014 at 12:00 PM


Visibility: 6 mi

Pressure: 30.01 "Hg

Humidity: 78%

Dew point: 66 °F

Location of NiteróiLocation

Historic Weather in Niterói — Graph

°F

Niterói temperature yesterday

Maximum temperature yesterday: 90 °F (at 11:00 AM)
Minimum temperature yesterday: 72 °F (at 6:00 AM)
Average temperature yesterday: 78 °F

Past Weeks' High & Low Weather Summary

 TemperatureHumidityPressure
High90 °F (Aug 26, 11:00 AM)100% (Aug 14, 12:00 PM)30.39 "Hg (Aug 14, 12:00 PM)
Low61 °F (Aug 14, 6:00 AM)29% (Aug 25, 1:00 PM)29.83 "Hg (Aug 25, 3:00 PM)
Average73 °F74%30.11 "Hg
* Reported Aug 12 11:00 AM — Aug 27 11:00 AM, Niterói, Weather by CustomWeather, © 2014

Note: Actual official high and low records may vary slightly from our data, if they occured in-between our weather recording intervals... More about our weather records

Advertising

Niterói weather history for previous 24 hours

 ConditionsComfort  
Time TempWeatherWind HumidityBarometerVisibility
11:00 AM
Aug 27
73 °FMostly cloudy.10 mph83%30.01 "Hg6 mi
10:00 AM73 °FMostly cloudy.9 mph83%30.04 "Hg6 mi
9:00 AM73 °FPartly sunny.3 mph89%30.01 "Hg5 mi
8:00 AM73 °FPartly sunny.6 mph83%29.98 "Hg6 mi
7:00 AM73 °FBroken clouds.3 mph83%29.95 "Hg4 mi
6:00 AM72 °FBroken clouds.3 mph88%29.95 "HgN/A
11:00 PM
Aug 26
72 °FClear.8 mph83%29.92 "Hg10 mi
10:00 PM72 °FClear.7 mph83%29.92 "Hg10 mi
9:00 PM73 °FClear.7 mph83%29.92 "Hg10 mi
8:00 PM73 °FClear.12 mph83%29.92 "Hg10 mi
7:00 PM75 °FClear.5 mph78%29.92 "Hg10 mi
6:00 PM75 °FClear.15 mph78%29.89 "Hg10 mi
5:00 PM75 °FClear.9 mph78%29.89 "Hg10 mi
4:00 PM82 °FSunny.10 mph51%29.86 "Hg10 mi
3:00 PM82 °FSunny.16 mph55%29.86 "Hg10 mi
2:00 PM84 °FSunny.18 mph51%29.86 "Hg10 mi
1:00 PM86 °FSunny.18 mph43%29.89 "Hg10 mi
12:00 PM90 °FSunny.15 mph36%29.89 "Hg10 mi
Weather by CustomWeather, © 2014

See weather overviewHow to use our weather pages